This is the latest recevied weather packets stored in our database for station/object K7SKM. If no packets are shown the sender has not sent any weather packets the latest 10 day(s).
| Time | Temp. | Humidity | Pressure | Rain* | Wind** | Luminosity | Snow |
|---|---|---|---|---|---|---|---|
| 1788625789 | 12.78° C | 89% | 1022.7 hPa | 0 mm | - | 47 W/m² | - |
| 1788625484 | 12.78° C | 89% | 1022.8 hPa | 0 mm | - | 48 W/m² | - |
| 1788625179 | 13.33° C | 90% | 1022.7 hPa | 0 mm | - | 61 W/m² | - |
| 1788624878 | 12.78° C | 91% | 1022.7 hPa | 0 mm | - | 79 W/m² | - |
| 1788624576 | 12.78° C | 91% | 1022.8 hPa | 0 mm | - | 75 W/m² | - |
| 1788624270 | 12.78° C | 91% | 1022.8 hPa | 0 mm | - | 71 W/m² | - |
| 1788623970 | 12.22° C | 91% | 1022.6 hPa | 0 mm | - | 79 W/m² | - |
| 1788623665 | 12.22° C | 92% | 1022.6 hPa | 0 mm | - | 84 W/m² | - |
| 1788623363 | 12.22° C | 92% | 1023 hPa | 0 mm | - | 86 W/m² | - |
| 1788623059 | 11.67° C | 93% | 1022.7 hPa | 0 mm | - | 83 W/m² | - |
| 1788622755 | 11.67° C | 93% | 1022.7 hPa | 0 mm | - | 84 W/m² | - |
| 1788622451 | 11.67° C | 94% | 1022.6 hPa | 0 mm | - | 84 W/m² | - |
| 1788622150 | 11.11° C | 95% | 1022.6 hPa | 0 mm | - | 70 W/m² | - |
| 1788621849 | 11.11° C | 95% | 1022.7 hPa | 0 mm | - | 61 W/m² | - |
| 1788621545 | 10.56° C | 96% | 1022.7 hPa | 0 mm | - | 51 W/m² | - |
| 1788621241 | 11.11° C | 97% | 1022.6 hPa | 0 mm | - | 51 W/m² | - |
| 1788620940 | 10.56° C | 97% | 1022.7 hPa | 0 mm | - | 53 W/m² | - |
| 1788620635 | 10.56° C | 97% | 1022.7 hPa | 0 mm | - | 55 W/m² | - |
| 1788620332 | 10.56° C | 97% | 1022.7 hPa | 0 mm | - | 53 W/m² | - |
| 1788620026 | 10.56° C | 98% | 1022.6 hPa | 0 mm | - | 45 W/m² | - |
| 1788619726 | 10.56° C | 98% | 1022.5 hPa | 0 mm | - | 41 W/m² | - |
| 1788619422 | 10° C | 98% | 1022.4 hPa | 0 mm | - | 35 W/m² | - |
| 1788619120 | 10° C | 98% | 1022.6 hPa | 0 mm | - | 29 W/m² | - |
| 1788618814 | 10° C | 98% | 1022.3 hPa | 0 mm | - | 22 W/m² | - |
| 1788618514 | 10° C | 98% | 1022.4 hPa | 0 mm | - | 17 W/m² | - |
* Rain latest hour (hover to see other rain measurements)
** Current wind speed in m/s (hover to see current wind gust speed)